Terminal Aerodrome Forecast
Issued by NWS Austin/San Antonio, TX

Home | Current Version | Previous Version | Text Only | Print | Product List | Glossary On
Versions: 1 2 3 4 5 6 7 8 9 10 11 12 13 14 15 16 17 18 19 20 21 22 23 24
321
FTUS44 KEWX 221303 AAB
TAFSAT
TAF AMD
KSAT 221303Z 2213/2318 04008KT 1SM BR OVC003
      TEMPO 2213/2214 1/4SM FG VV002
     FM221600 09008KT 6SM BR OVC007
     FM221900 11012KT P6SM OVC015
     FM230600 11007KT P6SM OVC007
     FM230900 12007KT P6SM OVC004=

USA.gov is the U.S. government's official web portal to all federal, state and local government web resources and services.